Jackson, MI

3:35 AM EDT on July 18, 2019 (GMT -0400)
Jackson County-Reynolds

Weather History for KJXN - May, 2019

Change the Weather History Date:

Friday, May 3, 2019

  Actual Average Record
Temperature  
Mean Temperature 51 °F 54 °F  
Max Temperature 56 °F 65 °F 86 °F (1959)
Min Temperature 45 °F 42 °F 28 °F (1971)
Degree Days  
Heating Degree Days 14 12  
Month to date heating degree days 33 36  
Since 1 July heating degree days 6430 6382  
Cooling Degree Days 0 0  
Month to date cooling degree days 0 0  
Year to date cooling degree days 0 6  
Moisture  
Dew Point 46 °F    
Average Humidity 89    
Maximum Humidity 100    
Minimum Humidity 77    
Precipitation  
Precipitation 0.04 in 0.10 in 1.04 in (2018)
Month to date precipitation 0.18 0.30  
Year to date precipitation 8.42 7.59  
Sea Level Pressure  
Sea Level Pressure 30.04 in    
Wind  
Wind Speed 7 mph (North)    
Max Wind Speed 12 mph    
Max Gust Speed 18 mph    
Visibility 6 miles    
Events Fog , Rain    
T = Trace of Precipitation, MM = Missing Value Source: NWS Daily Summary

Daily Weather History Graph

Daily Weather History Graph

Search for Another Location

Airport or City:

Astronomy

May. 03, 2019 Rise Set
Actual Time 6:30 AM EDT 8:39 PM EDT
Civil Twilight 6:00 AM EDT 9:10 PM EDT
Nautical Twilight 5:22 AM EDT 9:48 PM EDT
Astronomical Twilight 4:40 AM EDT 10:29 PM EDT
Moon 6:15 AM EDT (5/3) 7:23 PM EDT (5/3)
Length of Visible Light 15h 09m
Length of Day
14h 08m
Waning Crescent, 2% of the Moon is Illuminated
May 3
Waning Crescent
May 4
New
May 11
First Quarter
May 18
Full
May 26
Last Quarter

Hourly Weather History & Observations

Time (EDT) Temp. Windchill Dew Point Humidity Pressure Visibility Wind Dir Wind Speed Gust Speed Precip Events Conditions
12:56 AM 55.9 °F - 55.0 °F 97% 30.01 in 2.0 mi Calm Calm - N/A   Overcast
1:09 AM 55.9 °F - 55.9 °F 100% 30.02 in 1.8 mi Calm Calm - 0.00 in Rain Light Rain
1:56 AM 51.1 °F - 51.1 °F 100% 30.02 in 0.5 mi NW 8.1 mph - 0.01 in Fog Fog
2:48 AM 48.9 °F - 48.9 °F 100% 30.01 in 0.8 mi NNW 5.8 mph - 0.01 in Rain Light Rain
2:56 AM 48.0 °F - 48.0 °F 100% 30.01 in 1.0 mi NNW 5.8 mph - 0.02 in Rain Light Rain
3:06 AM 48.0 °F - 48.0 °F 100% 30.02 in 3.0 mi NNW 5.8 mph - 0.01 in Rain Light Rain
3:40 AM 48.0 °F - 48.0 °F 100% 30.02 in 2.5 mi NW 4.6 mph - 0.01 in   Overcast
3:56 AM 48.0 °F - 48.0 °F 100% 30.02 in 2.5 mi NW 4.6 mph - 0.01 in   Overcast
4:56 AM 46.9 °F - 46.9 °F 100% 30.02 in 2.5 mi NNW 8.1 mph - N/A   Overcast
5:27 AM 46.9 °F - 46.9 °F 100% 30.03 in 5.0 mi NW 6.9 mph - N/A   Overcast
5:44 AM 46.9 °F - 46.9 °F 100% 30.02 in 2.0 mi NNW 5.8 mph - N/A   Overcast
5:56 AM 46.9 °F - 46.0 °F 97% 30.03 in 2.5 mi NW 5.8 mph - N/A   Overcast
6:56 AM 45.0 °F 40.6 °F 45.0 °F 100% 30.04 in 1.2 mi NNW 8.1 mph - N/A   Overcast
7:17 AM 45.0 °F 41.8 °F 45.0 °F 100% 30.03 in 2.0 mi NNW 5.8 mph - N/A   Overcast
7:35 AM 45.0 °F 40.6 °F 44.1 °F 97% 30.04 in 4.0 mi NNW 8.1 mph - N/A   Overcast
7:52 AM 44.6 °F 40.7 °F 44.6 °F 100% 30.05 in 2.5 mi NW 6.9 mph - N/A   Overcast
7:56 AM 45.0 °F 41.2 °F 44.1 °F 97% 30.05 in 2.5 mi NNW 6.9 mph - N/A   Overcast
8:04 AM 45.0 °F 41.8 °F 44.1 °F 97% 30.05 in 3.0 mi NNW 5.8 mph - N/A   Overcast
8:29 AM 45.0 °F 41.2 °F 44.1 °F 97% 30.05 in 9.0 mi North 6.9 mph - N/A   Overcast
8:56 AM 45.0 °F 40.6 °F 44.1 °F 97% 30.06 in 5.0 mi NNW 8.1 mph - N/A   Overcast
9:03 AM 45.0 °F 39.7 °F 44.1 °F 97% 30.05 in 6.0 mi North 10.4 mph - N/A   Overcast
9:26 AM 45.0 °F 41.2 °F 44.1 °F 97% 30.05 in 10.0 mi North 6.9 mph - N/A   Overcast
9:56 AM 46.0 °F 41.0 °F 44.1 °F 93% 30.07 in 10.0 mi North 10.4 mph - N/A   Overcast
10:56 AM 46.0 °F 41.0 °F 44.1 °F 93% 30.07 in 10.0 mi North 10.4 mph - N/A   Overcast
11:56 AM 46.9 °F - 44.1 °F 90% 30.08 in 10.0 mi NNE 9.2 mph - N/A   Overcast
12:56 PM 48.0 °F - 45.0 °F 89% 30.07 in 10.0 mi NNW 8.1 mph - N/A   Overcast
1:41 PM 50.0 °F - 45.0 °F 83% 30.05 in 10.0 mi NE 6.9 mph - N/A   Overcast
1:56 PM 50.0 °F - 44.1 °F 80% 30.06 in 10.0 mi North 8.1 mph 17.3 mph N/A   Overcast
2:56 PM 51.1 °F - 45.0 °F 80% 30.05 in 10.0 mi North 8.1 mph - N/A   Overcast
3:56 PM 50.0 °F - 45.0 °F 83% 30.04 in 10.0 mi North 9.2 mph - N/A   Overcast
4:39 PM 50.0 °F - 45.0 °F 83% 30.02 in 10.0 mi NNE 8.1 mph - N/A   Overcast
4:56 PM 51.1 °F - 45.0 °F 80% 30.03 in 10.0 mi NNE 6.9 mph - N/A   Overcast
5:56 PM 52.0 °F - 46.0 °F 80% 30.03 in 10.0 mi North 6.9 mph - N/A   Overcast
6:56 PM 51.1 °F - 45.0 °F 80% 30.04 in 10.0 mi NNE 9.2 mph - N/A   Overcast
7:56 PM 50.0 °F - 45.0 °F 83% 30.04 in 10.0 mi NNE 6.9 mph - N/A   Overcast
8:56 PM 50.0 °F - 44.1 °F 80% 30.04 in 10.0 mi North 6.9 mph - N/A   Overcast
9:56 PM 48.0 °F - 44.1 °F 86% 30.05 in 10.0 mi NNW 8.1 mph - N/A   Overcast
10:56 PM 48.0 °F - 43.0 °F 83% 30.06 in 10.0 mi NNW 4.6 mph - N/A   Overcast
11:14 PM 48.0 °F - 43.0 °F 83% 30.04 in 10.0 mi North 5.8 mph - N/A   Overcast
11:56 PM 46.9 °F - 43.0 °F 86% 30.03 in 10.0 mi NE 5.8 mph - N/A   Overcast